Probability
11 10 8 6 5 5 7 7 6 3 2 4 6 7 7 7 7 6 4 3 2 2 2 2 3 3 2 1 0 0 0 0 0 0 0 0 0 0
11 10 9 7 6 7 7 7 7 5 5 6 8 8 7 5 5 6 5 4 2 1 1 1 2 2 1 0 0 0 0 0 0 0 0 0 0 0
11 10 9 9 8 8 9 9 9 8 7 8 9 9 7 6 5 6 6 4 2 0 0 0 1 1 0 0 0 0 0 0 0 0 0 0 0 0
12 11 10 9 8 9 10 11 11 10 9 9 10 9 8 6 6 5 4 3 2 0 0 0 0 0 0 0 0 0 0 0 0 0 0 0 0 0
12 12 11 9 8 10 11 11 11 12 11 10 10 10 8 7 5 3 2 2 1 0 0 0 0 0 0 0 0 0 0 0 0 0 0 0 0 0
12 12 10 8 7 8 9 10 11 12 13 11 9 8 9 7 5 2 2 2 2 1 1 1 1 1 1 0 0 0 0 0 0 0 0 0 0 0
13 12 10 8 6 5 6 8 9 11 11 9 7 7 8 8 5 3 3 3 2 3 2 2 3 4 3 1 0 0 0 0 0 0 0 0 0 0
14 13 10 7 4 3 3 4 5 6 7 7 7 7 8 7 6 5 4 4 3 4 4 3 4 5 5 3 1 0 0 0 0 0 0 0 0 0
13 12 10 6 4 3 3 4 4 5 5 5 6 7 7 8 8 6 5 6 6 6 6 5 5 5 4 3 2 0 0 0 0 0 0 0 0 0
12 13 12 10 6 4 6 7 9 8 5 4 5 6 6 7 7 6 7 8 8 6 6 6 5 4 4 5 3 1 0 0 0 0 0 0 0 0
14 14 12 10 7 4 7 10 11 11 8 6 5 4 4 4 4 4 6 7 7 5 6 7 6 4 6 8 7 4 2 0 0 0 0 0 0 0
14 12 8 5 3 3 5 8 9 9 9 8 7 6 5 4 3 3 4 5 5 5 6 8 8 7 8 9 10 9 7 4 2 1 0 0 0 0
11 10 6 2 0 1 3 5 5 4 5 7 9 9 8 7 6 5 6 7 7 7 8 9 9 8 8 8 10 13 13 10 8 5 3 1 0 0
6 6 5 2 0 0 0 1 1 1 3 5 8 9 9 9 8 7 7 8 8 8 9 10 9 8 8 7 8 11 14 14 12 11 8 5 2 1
3 2 2 1 0 0 0 0 0 1 3 5 6 6 6 7 9 9 7 6 5 5 7 9 11 10 8 8 7 8 11 13 14 13 12 9 6 5
1 1 1 1 0 0 1 1 1 2 4 5 6 5 5 6 7 8 6 5 4 3 5 8 11 10 8 6 5 6 7 9 11 12 12 10 8 8
1 2 3 2 1 1 2 3 3 4 4 4 4 4 5 6 6 7 7 6 4 3 5 7 9 9 7 3 2 3 4 5 8 11 11 8 7 7
1 3 3 3 3 3 3 5 5 6 7 6 5 4 5 6 6 7 8 7 5 3 5 7 7 7 4 2 1 2 2 2 5 9 10 7 5 5
1 1 2 3 3 3 3 4 5 6 8 8 8 7 6 7 7 7 8 7 5 4 5 7 6 4 2 2 2 1 1 0 2 6 7 5 3 2
0 0 1 2 3 3 3 4 4 5 7 8 9 9 8 8 7 6 5 5 5 4 4 4 5 3 1 2 2 1 0 0 0 2 3 2 1 1
0 0 0 1 1 2 3 4 6 6 6 7 8 9 10 9 8 5 3 3 4 4 2 3 5 5 4 3 1 0 0 0 0 0 1 1 0 0
0 1 1 0 0 1 2 3 5 6 6 6 7 8 8 9 8 5 3 3 3 3 3 4 6 7 7 4 1 0 0 0 1 1 0 0 0 0
1 2 2 1 0 0 1 2 3 4 5 5 6 7 7 7 7 5 4 3 3 3 3 5 7 9 8 5 2 1 1 1 2 3 1 0 0 0
Wind_Speed
2 2 2 2 2 2 2 3 4 4 2 1 1 1 1 1 1 3 3 5 5 4 4 4 4 3 3 3 3 2 2 1 1 1 2 2 2 3
1 1 2 2 2 2 2 3 4 4 3 1 1 1 1 2 2 2 3 7 6 5 4 4 4 4 5 4 4 3 3 2 2 2 2 2 2 2
1 1 2 2 2 2 2 2 2 3 3 2 1 0 1 2 1 2 2 3 4 7 6 5 5 6 6 6 5 4 4 4 3 3 3 3 3 3
2 2 2 2 2 2 2 2 2 2 3 3 2 1 2 2 2 3 2 3 2 6 7 6 6 7 7 6 6 5 5 4 4 3 3 3 3 3
3 3 3 2 2 2 3 2 2 2 3 3 3 1 2 2 2 3 3 2 3 4 7 7 8 7 7 7 6 6 5 5 4 4 4 3 3 3
4 3 3 3 3 3 3 3 3 3 3 3 3 2 2 1 2 2 3 3 3 3 3 4 7 9 8 8 7 7 6 6 5 5 4 4 4 3
4 4 4 2 2 3 3 3 3 3 3 3 3 3 2 2 3 3 3 3 3 3 3 3 4 4 6 7 8 7 6 6 6 6 5 5 5 4
4 4 4 4 4 5 4 5 5 4 4 4 4 4 4 4 3 4 3 3 3 2 3 3 3 3 3 4 6 7 7 6 6 6 6 5 5 5
4 5 5 3 4 4 5 6 6 6 6 7 6 6 5 4 4 5 4 5 4 2 3 4 3 3 3 3 7 8 7 7 6 6 6 6 6 6
5 5 4 4 3 4 5 5 4 4 5 6 6 6 5 3 4 5 5 5 5 3 3 5 3 4 3 3 8 9 8 8 7 7 6 6 6 6
5 4 4 4 2 3 5 5 4 4 3 4 4 5 4 4 4 4 4 4 4 3 3 4 4 4 3 4 6 10 9 9 8 7 7 7 7 7
4 4 3 2 2 2 5 4 5 4 4 4 4 5 6 6 7 6 5 4 4 3 2 4 4 3 3 3 3 5 6 8 9 9 8 7 6 6
3 2 1 4 2 3 5 4 4 5 5 5 4 4 4 4 4 4 5 5 4 4 2 3 3 3 3 3 2 3 4 4 6 7 8 8 7 6
3 2 1 3 3 4 4 3 5 6 5 4 4 3 3 3 3 3 4 4 4 5 4 4 4 4 4 4 3 3 3 3 4 4 5 8 8 8
3 2 0 3 5 5 5 6 6 5 4 4 4 4 4 3 3 3 4 4 5 5 4 5 6 5 5 5 4 4 4 3 4 4 4 4 5 5
3 2 5 6 6 4 4 5 5 3 4 4 3 3 3 3 3 3 3 3 4 3 4 4 5 5 5 5 5 4 4 3 3 3 4 4 4 4
3 4 4 3 3 3 3 3 3 3 3 3 3 3 3 3 3 3 3 3 4 3 3 2 3 4 5 5 5 4 4 4 4 3 4 5 5 5
5 4 4 3 3 3 3 3 3 3 3 3 3 3 3 3 3 3 3 4 4 4 3 2 2 3 4 3 4 5 4 3 3 3 4 5 4 4
6 4 3 3 4 3 3 3 3 3 3 3 3 3 4 4 4 3 4 4 4 4 4 3 3 3 5 4 3 4 4 3 4 3 4 4 4 3
4 4 3 3 3 3 3 3 4 3 3 3 3 4 4 4 4 4 4 4 5 4 4 3 3 4 5 5 4 2 4 5 4 4 4 4 3 2
4 3 4 4 4 3 3 3 4 3 4 4 4 4 4 5 4 5 5 4 6 5 5 4 3 5 5 5 4 3 3 3 3 4 4 5 5 5
4 4 4 4 4 4 4 4 4 4 4 4 4 4 5 5 5 6 5 5 5 5 5 4 3 4 5 5 5 4 3 3 3 4 4 4 4 4
3 3 3 4 4 4 4 4 5 4 4 4 4 4 5 5 5 5 5 5 5 5 5 4 4 4 5 5 5 4 4 4 3 4 3 4 6 4
Wind_Direction
251 229 251 269 263 269 267 260 269 272 266 242 234 173 239 253 168 207 186 154 169 179 180 177 172 179 187 189 195 187 178 194 226 263 285 281 262 250
269 292 274 279 295 276 265 263 272 278 283 276 250 259 282 261 157 234 205 158 168 184 193 196 196 201 196 194 197 195 193 203 225 244 258 265 261 252
274 258 266 292 281 275 271 272 272 273 268 280 283 169 212 265 221 248 227 211 180 182 197 207 214 212 201 198 200 198 199 208 222 237 249 256 253 252
243 254 254 249 259 276 277 273 282 283 268 275 279 242 224 227 224 241 237 225 223 171 191 206 212 211 205 202 202 200 203 211 217 227 238 245 246 246
243 245 249 253 260 274 268 266 260 255 265 266 264 254 244 236 240 237 235 244 243 185 187 195 200 203 200 202 203 202 203 209 214 220 230 237 245 244
240 244 246 246 253 264 261 266 270 266 252 258 264 251 238 231 244 246 240 222 248 242 221 198 187 194 195 198 202 206 208 208 211 216 224 231 235 236
239 243 244 251 290 285 284 276 267 264 260 259 261 261 254 252 250 258 257 246 233 244 241 225 198 201 197 197 200 205 208 208 209 215 222 227 226 226
241 246 241 222 235 246 264 273 278 269 279 280 270 272 264 256 258 260 266 257 246 220 245 239 232 229 213 205 175 186 198 205 211 216 219 220 222 223
244 245 253 241 235 252 237 224 234 241 253 270 279 284 280 268 258 255 256 266 270 267 252 248 232 244 233 182 159 177 192 200 207 215 218 219 221 220
240 240 247 255 260 274 268 260 254 244 243 252 268 277 283 286 261 258 257 253 255 243 243 258 247 242 237 205 173 184 194 200 205 212 217 217 218 219
236 237 245 253 259 271 265 265 265 262 236 239 259 269 285 279 273 265 253 250 256 246 222 252 256 251 233 221 189 184 193 200 204 210 216 220 220 219
236 226 202 240 242 244 254 257 262 270 269 250 239 241 248 243 231 246 257 256 260 257 216 240 250 249 246 222 209 189 196 196 199 203 207 212 217 225
259 251 146 141 201 248 265 268 277 278 266 262 259 255 252 248 240 237 247 255 260 262 252 253 270 261 259 262 238 225 225 213 202 198 199 201 205 228
275 279 106 144 212 242 253 270 272 266 263 267 268 264 261 260 259 255 250 253 264 271 277 269 269 270 272 271 263 243 236 233 229 223 209 188 200 212
286 14 104 208 228 224 218 238 247 252 263 266 269 274 277 277 268 251 242 237 241 246 247 245 257 264 262 268 272 262 250 239 234 234 227 206 203 200
255 210 201 216 235 246 226 225 242 264 273 275 278 281 281 271 261 263 259 248 247 237 219 232 245 256 258 259 261 261 260 251 240 236 233 229 218 215
271 250 242 232 235 242 247 253 256 250 254 269 274 276 277 277 276 275 272 265 257 258 248 233 229 236 254 265 260 257 257 252 242 236 238 234 226 219
254 245 247 248 250 254 256 253 252 259 267 270 272 276 277 276 271 266 262 261 264 263 261 258 249 246 246 235 260 263 260 254 249 240 245 245 235 218
242 247 249 251 254 254 256 262 267 270 276 274 277 276 276 275 270 268 269 265 263 263 258 250 247 252 258 260 231 239 261 254 245 235 237 249 249 233
242 249 252 250 250 252 255 258 264 265 264 270 270 270 271 273 274 267 263 270 270 266 259 250 246 255 264 275 276 248 233 248 247 242 238 240 244 221
239 244 249 250 249 250 254 259 262 264 265 266 263 263 265 266 267 269 267 253 260 263 260 254 246 243 257 260 252 240 224 220 257 260 247 239 237 231
254 252 249 251 252 253 250 252 253 251 251 256 261 260 258 259 260 264 271 270 264 264 265 266 250 245 250 253 256 246 241 229 208 219 253 269 262 252
257 258 252 248 246 248 250 249 251 254 258 262 262 261 263 264 263 261 261 264 269 271 271 269 260 251 255 254 253 253 239 232 234 223 218 207 208 216